Lapse_Rate
6.7 6.6 6.6 6.6 6.4 6.4 6.4 6.3 6.3 6.4 6.4 6.5 6.6 6.7 6.8 6.9 7.0 6.8 6.7 6.7 6.7 6.8 6.7 6.7 6.5 6.4 6.4 6.3 6.3 6.2 6.2 6.1 6.1 6.1 6.1 6.0 6.1 5.9 6.0 5.9 5.7 5.8 6.2 6.0 5.9 6.0 6.1
6.7 6.6 6.6 6.4 6.4 6.4 6.4 6.4 6.3 6.5 6.6 6.5 6.6 6.7 6.8 6.9 7.0 7.0 6.9 6.9 7.0 6.8 6.7 6.8 6.7 6.6 6.5 6.5 6.6 6.6 6.4 6.3 6.3 6.2 6.0 6.1 6.2 6.0 5.9 6.1 5.8 6.0 5.8 5.9 6.1 6.3 6.2
6.6 6.5 6.5 6.3 6.4 6.4 6.3 6.3 6.2 6.3 6.5 6.6 6.7 6.7 6.8 6.8 7.0 7.0 6.8 6.9 6.9 6.9 6.8 6.8 6.8 6.7 6.6 6.5 6.5 6.5 6.5 6.3 6.3 6.2 6.1 5.9 5.9 6.0 6.0 6.0 5.9 6.0 5.8 5.9 6.0 6.2 6.3
6.4 6.4 6.3 6.2 6.2 6.2 6.2 6.2 6.2 6.3 6.5 6.7 6.8 7.0 6.9 6.9 6.8 6.8 6.8 6.8 6.8 6.8 6.7 6.7 6.6 6.7 6.6 6.7 6.6 6.4 6.2 6.3 6.1 5.9 5.8 5.7 5.8 6.2 6.2 6.0 5.6 5.5 5.3 5.4 5.6 5.4 5.8
6.3 6.2 6.2 6.1 6.1 6.1 6.1 6.1 6.2 6.3 6.4 6.5 6.8 6.9 6.9 6.9 6.9 6.9 6.7 6.7 6.7 6.7 6.6 6.7 6.7 6.8 6.6 6.4 6.4 6.2 6.0 5.9 5.9 5.7 5.6 5.5 5.8 6.1 6.3 6.3 5.6 5.7 5.7 5.5 5.4 5.8 6.2
6.2 6.1 6.0 6.1 6.0 6.0 6.0 6.1 6.1 6.3 6.4 6.5 6.7 6.8 6.9 6.9 6.9 6.7 6.8 6.5 6.5 6.5 6.6 6.5 6.6 6.6 6.1 6.1 5.8 5.5 5.5 5.4 5.4 5.4 5.4 5.6 5.7 6.3 6.6 6.2 5.8 5.7 5.3 5.4 5.5 6.0 6.3
6.0 6.0 5.9 5.9 5.9 5.9 6.0 6.1 6.1 6.2 6.3 6.5 6.5 6.6 6.7 6.7 6.7 6.7 6.4 6.5 6.3 6.5 6.3 6.3 6.4 6.4 5.9 5.5 5.2 5.2 5.2 5.3 5.2 5.4 5.6 5.4 5.5 6.8 6.2 6.2 6.0 5.9 5.7 5.7 6.4 6.8 6.4
5.9 5.7 5.7 5.7 5.8 5.9 5.9 6.0 6.0 6.1 6.2 6.2 6.2 6.3 6.3 6.4 6.5 6.3 6.3 6.1 5.9 5.8 5.8 6.0 6.0 5.5 5.3 5.1 4.9 5.1 5.2 5.1 5.3 5.5 5.6 5.1 5.8 6.3 6.1 6.3 6.1 5.8 5.9 5.7 6.4 7.1 6.9
5.6 5.5 5.6 5.6 5.6 5.7 5.8 5.8 5.9 5.9 5.9 6.0 6.0 6.0 6.1 6.2 6.3 6.2 6.1 6.2 6.0 5.8 5.7 5.3 5.1 5.1 5.0 4.9 5.0 5.3 5.1 5.1 5.3 5.3 5.4 4.8 6.2 6.1 6.1 5.9 6.2 6.0 6.2 6.7 6.8 7.2 7.2
5.4 5.4 5.5 5.5 5.6 5.6 5.6 5.6 5.6 5.6 5.6 5.7 5.7 5.9 6.0 6.0 6.1 6.2 6.0 6.0 5.9 5.7 5.3 4.6 4.7 4.7 4.8 5.0 5.1 5.1 5.4 5.0 4.7 4.6 4.5 4.4 5.5 5.6 5.6 5.7 6.8 6.0 7.2 7.1 7.1 7.1 6.7
5.3 5.3 5.4 5.4 5.5 5.4 5.5 5.5 5.5 5.6 5.6 5.6 5.7 5.7 5.9 5.9 5.9 5.7 5.6 5.6 5.6 5.6 3.1 4.6 4.6 4.8 5.0 5.0 5.0 5.1 4.9 4.5 4.3 4.2 4.2 4.7 5.2 5.5 5.7 6.4 6.7 6.7 7.2 7.1 7.3 7.2 7.1
5.3 5.3 5.3 5.3 5.4 5.3 5.3 5.3 5.3 5.3 5.3 5.4 5.4 5.7 5.8 5.6 5.4 5.5 5.3 5.2 5.3 5.3 3.5 4.9 4.7 5.1 5.2 5.5 5.4 5.1 4.5 4.0 4.0 4.1 4.5 5.1 5.6 5.9 5.8 6.0 6.5 6.9 7.1 7.3 7.4 7.2 7.2
5.3 5.3 5.3 5.4 5.4 5.3 5.1 5.0 5.1 5.2 5.2 5.3 5.4 5.5 5.6 5.6 5.6 5.2 5.0 5.0 5.2 5.2 5.1 4.5 4.8 5.0 5.1 5.1 4.7 4.4 4.3 4.3 4.3 4.4 4.5 5.2 6.0 5.7 6.0 6.6 7.2 7.3 7.0 7.5 6.9 7.3 7.6
5.4 5.3 5.4 5.5 5.4 5.2 5.2 5.1 5.1 5.2 5.2 5.3 5.4 5.4 5.4 5.5 5.2 4.8 4.9 5.1 5.1 4.8 5.2 5.0 5.0 4.8 4.4 4.3 4.0 3.9 3.8 3.5 3.5 3.5 3.9 4.0 5.1 5.8 7.0 6.6 6.6 7.5 7.6 7.6 7.4 7.2 7.0
5.3 5.3 5.3 5.3 5.3 5.2 5.2 5.0 5.0 5.0 5.1 5.0 5.2 5.3 5.1 5.0 4.6 4.6 4.8 4.7 4.6 4.5 4.1 4.0 4.3 3.8 3.6 3.4 3.3 3.3 3.4 3.1 2.8 3.3 4.0 4.8 4.7 5.8 6.7 7.0 7.2 7.5 7.8 7.6 7.4 7.7 7.3
5.2 5.3 5.3 5.2 5.1 5.1 4.9 4.8 4.9 4.7 4.8 5.0 5.0 4.9 4.8 4.5 4.5 4.5 4.5 4.4 4.5 4.4 4.3 3.9 3.5 3.0 2.8 2.5 2.5 2.8 3.5 3.6 3.9 4.1 4.2 4.8 4.3 5.0 5.6 7.2 7.7 7.4 7.3 7.3 7.9 7.8 7.9
5.2 5.3 5.2 4.8 4.7 4.6 4.6 4.6 4.6 4.4 4.5 4.6 4.6 4.7 4.4 4.3 4.3 4.2 4.3 4.1 4.2 4.2 4.1 3.3 2.8 2.4 2.1 2.0 1.8 2.3 3.3 3.8 4.0 4.5 4.9 4.9 5.1 5.2 5.5 6.7 6.8 7.4 6.6 7.2 7.1 7.3 7.4
5.1 5.2 4.9 4.5 4.5 4.3 4.2 4.3 4.2 4.3 4.5 4.5 4.6 4.3 4.1 4.3 4.4 4.2 4.0 4.0 4.0 4.0 3.6 2.9 2.3 2.0 1.9 1.8 1.9 2.4 3.5 4.4 4.8 4.6 4.7 5.0 5.1 5.2 5.4 7.0 6.7 6.7 6.3 6.0 6.2 6.0 6.2
5.0 4.8 4.4 4.3 4.1 3.9 3.9 4.0 4.0 4.1 4.2 4.5 4.4 4.2 4.2 4.2 4.2 3.9 3.8 3.8 3.6 3.1 2.8 2.3 2.1 2.2 1.8 1.9 2.0 3.0 3.7 4.5 5.1 5.3 5.4 5.8 6.2 6.2 6.5 7.6 7.6 6.8 6.4 6.1 6.0 6.2 6.3
4.7 4.5 4.2 4.0 3.7 3.7 3.6 3.7 3.8 3.9 4.0 4.0 3.9 3.7 3.8 3.8 3.7 3.4 3.3 3.3 3.1 2.6 2.0 1.7 1.7 1.6 1.6 2.1 2.9 3.5 4.2 4.5 5.3 5.8 6.2 6.5 6.9 7.1 6.9 7.0 7.1 6.9 7.0 6.8 6.4 6.1 6.1
4.3 4.0 3.8 3.6 3.4 3.4 3.5 3.6 3.8 3.8 3.6 3.8 3.6 3.3 3.3 3.1 3.2 3.0 2.8 2.6 2.5 2.3 1.8 1.2 1.3 1.6 1.8 2.3 3.0 3.9 4.4 5.2 5.9 6.4 7.0 7.4 7.3 7.4 7.5 7.4 7.0 6.8 6.9 7.2 7.0 6.5 6.0
3.5 3.5 3.4 3.5 3.3 3.3 3.7 3.7 3.6 3.6 3.5 3.4 3.7 3.4 3.2 3.0 2.9 2.8 2.5 2.3 1.9 1.8 1.4 0.9 1.0 1.5 2.4 3.1 3.9 4.7 5.3 6.4 6.7 7.1 7.6 7.6 7.7 7.8 8.1 8.3 8.0 8.0 7.8 7.5 7.4 6.6 6.4
2.8 3.0 3.0 3.3 3.3 3.5 3.6 3.8 3.6 3.4 3.6 3.7 3.4 3.4 3.4 3.1 2.8 2.6 2.3 2.0 1.6 1.2 1.4 1.0 1.6 2.1 3.0 3.9 5.1 6.1 6.8 7.7 8.0 8.5 8.6 8.3 8.2 8.3 8.6 8.7 8.5 8.3 8.0 7.6 7.6 7.5 6.9
2.7 2.6 2.8 3.1 3.4 3.5 3.5 3.6 3.5 3.5 3.6 3.3 3.3 3.3 3.1 2.9 2.6 2.3 2.2 1.7 1.3 1.4 1.7 1.8 2.2 2.9 3.9 4.9 6.1 7.0 8.1 8.4 8.7 8.9 8.7 8.5 8.6 8.4 8.6 8.8 8.6 7.9 7.9 7.7 7.3 7.3 7.1
3.0 2.8 3.1 3.2 3.4 3.4 3.4 3.5 3.3 3.3 3.2 3.2 3.2 3.2 3.0 2.6 2.4 2.1 1.7 1.4 1.3 1.8 2.3 2.6 3.2 3.7 4.8 5.7 6.7 7.4 8.2 8.7 8.9 9.0 8.8 8.5 8.4 8.4 8.5 8.5 8.5 8.3 8.1 7.7 7.3 7.5 7.6
2.8 3.1 3.3 3.4 3.3 3.3 3.5 3.3 3.3 3.3 3.1 3.2 3.2 3.2 2.8 2.4 2.0 1.9 1.6 1.3 1.5 1.7 2.6 3.3 3.9 4.8 5.4 6.3 7.0 7.8 8.6 8.8 8.8 8.5 8.8 8.8 8.6 8.5 8.5 8.4 8.3 7.6 8.2 8.1 7.8 7.3 6.8
2.6 3.2 3.4 3.4 3.4 3.4 3.5 3.4 3.4 3.2 3.2 3.1 3.1 2.8 2.5 2.1 2.0 1.8 1.5 1.3 1.3 1.8 2.5 3.4 4.5 5.4 6.1 6.8 7.4 7.8 8.4 8.4 8.2 8.0 8.0 8.2 8.3 8.1 8.0 8.0 7.7 7.4 7.2 7.1 6.6 6.2 6.3
2.6 3.3 3.5 3.5 3.5 3.5 3.5 3.5 3.3 3.3 3.3 3.3 3.0 2.8 2.5 2.1 1.9 1.6 1.3 1.5 1.8 2.4 3.1 4.0 5.1 5.6 6.3 6.9 7.6 7.8 7.9 7.9 8.0 7.7 7.5 7.5 7.4 7.4 7.3 7.4 7.1 6.8 6.6 5.8 5.1 5.4 5.3
3.1 3.5 3.6 3.5 3.6 3.6 3.6 3.4 3.4 3.3 3.3 3.2 2.8 2.5 2.2 2.1 2.1 1.7 1.6 1.8 2.3 3.1 4.0 4.9 5.4 5.9 6.3 6.8 7.3 7.3 7.4 7.5 7.4 7.4 7.4 7.3 7.0 6.7 6.8 6.9 6.8 6.2 5.8 5.7 5.6 5.6 5.6
Wind_Speed
13 14 15 15 16 17 18 19 20 21 22 23 24 24 24 24 23 23 21 20 20 17 15 12 8 8 2 1 4 5 8 7 4 2 3 3 4 4 4 3 2 4 4 3 5 6 6
13 14 15 16 16 17 19 20 21 23 24 24 25 25 24 23 23 24 22 20 21 19 14 9 4 3 2 3 1 2 6 4 2 3 2 4 3 4 2 2 4 2 5 8 5 7 7
13 14 15 16 17 18 19 20 21 23 24 25 26 26 25 24 23 23 23 22 18 11 6 2 3 2 2 4 2 2 3 1 1 2 3 2 2 3 3 4 2 4 7 7 7 6 8
13 14 15 16 17 19 20 22 23 24 25 26 27 27 26 24 24 23 22 20 9 5 3 3 4 1 3 1 1 3 1 2 2 1 3 2 3 3 2 4 5 4 2 5 3 3 4
13 14 16 17 18 20 21 23 24 25 26 27 27 27 26 24 24 23 22 8 4 5 3 5 3 1 3 2 2 1 1 2 3 2 3 3 3 1 2 1 3 2 6 4 7 4 1
13 14 16 18 19 21 22 23 24 25 26 27 28 27 25 23 23 23 16 2 2 2 1 1 1 2 5 4 4 1 0 1 2 2 3 3 4 0 1 2 5 4 6 6 7 3 3
13 15 16 18 19 21 22 24 25 26 27 29 30 29 26 24 21 19 8 3 5 3 8 2 5 2 3 7 3 1 1 2 2 4 2 0 1 7 9 9 6 3 6 13 15 12 12
13 15 17 18 20 21 23 24 25 26 27 29 30 30 26 23 16 14 5 6 3 3 6 3 4 4 5 2 3 2 1 2 1 3 1 0 10 9 5 5 8 8 14 19 15 13 10
13 15 16 18 20 21 23 24 26 27 27 29 29 29 25 24 6 5 5 3 2 4 0 6 2 2 4 3 2 4 3 1 4 3 5 6 6 3 1 4 7 12 11 14 13 10 6
13 15 17 19 20 21 23 25 26 27 28 29 29 27 22 21 5 2 2 4 3 3 4 6 3 4 7 4 1 3 2 2 2 4 3 6 4 3 3 6 7 14 11 17 16 6 8
13 15 17 19 20 22 24 25 27 28 29 29 29 24 17 12 1 3 6 11 2 2 5 4 5 4 8 6 6 2 5 2 4 5 2 6 5 7 10 9 6 10 8 11 12 8 4
13 15 17 19 20 22 24 26 27 29 30 30 29 19 11 4 3 1 13 4 2 5 5 4 5 7 7 7 6 8 8 8 2 4 4 10 5 4 4 4 6 6 5 5 2 4 8
12 14 17 19 21 23 25 27 29 30 31 30 26 13 4 2 4 16 6 2 4 4 5 8 5 7 5 6 6 8 5 8 5 8 6 9 4 2 6 6 5 9 6 3 2 4 6
12 14 17 19 22 24 26 28 30 32 31 31 21 4 4 5 12 4 2 5 3 3 4 3 4 8 3 10 4 8 3 4 6 4 4 5 6 6 11 4 5 10 4 3 6 3 4
12 14 17 19 22 24 26 29 32 33 31 28 9 3 3 8 10 1 4 5 1 2 4 7 10 4 3 5 6 8 4 3 4 6 4 4 6 12 14 4 2 5 3 5 5 7 6
12 14 17 20 23 25 28 31 33 34 32 19 2 2 4 22 9 4 5 4 1 3 5 4 4 6 5 7 7 9 3 2 5 6 1 4 8 4 5 8 2 5 6 4 3 5 7
11 14 17 20 24 27 29 32 35 35 34 8 3 3 3 22 4 7 4 2 3 4 6 6 4 5 3 4 3 4 4 2 3 6 6 4 4 8 9 4 13 8 5 4 3 3 3
10 13 17 20 24 27 31 34 36 36 31 9 2 3 5 6 5 3 3 3 5 5 6 4 2 2 2 4 4 3 3 2 1 4 8 3 4 6 13 19 6 5 6 11 4 6 4
10 13 17 19 23 26 30 33 35 34 21 2 3 1 4 4 4 3 3 3 3 5 5 5 4 4 3 3 6 4 4 4 4 10 5 4 3 6 10 4 5 4 8 12 6 5 4
9 12 15 18 21 25 29 33 35 33 18 4 3 3 5 5 2 4 2 3 5 4 2 3 2 4 5 3 5 6 11 6 12 10 19 6 3 6 9 13 11 14 15 11 2 2 4
9 11 14 18 20 23 27 32 35 33 16 4 4 1 2 3 5 4 3 2 3 6 5 7 2 6 5 4 5 3 6 9 11 9 5 3 6 5 11 14 14 14 14 10 2 4 2
9 10 14 17 19 22 26 30 34 37 10 4 3 3 3 2 2 2 5 2 2 4 2 2 4 7 4 3 5 12 12 14 5 6 5 3 3 5 8 8 5 0 10 10 9 12 4
8 9 13 15 17 19 23 27 30 35 14 4 1 1 3 3 1 1 1 1 1 3 3 3 3 2 5 5 7 14 12 11 7 4 3 3 3 6 3 9 4 6 13 16 12 10 5
7 9 12 13 15 17 19 23 24 26 18 3 1 2 3 1 2 1 2 1 3 4 3 5 2 1 5 7 8 4 4 3 4 4 5 5 6 4 4 7 3 6 12 11 12 9 11
6 9 10 12 13 14 16 18 19 18 17 4 1 3 3 2 1 2 1 2 4 5 2 3 3 4 5 5 5 5 5 6 4 3 3 4 1 4 3 3 1 6 13 11 11 5 12
7 8 8 10 10 12 13 14 14 15 9 6 2 2 3 4 2 1 2 1 1 3 6 4 4 4 4 1 2 1 2 4 4 9 5 8 1 2 3 3 3 5 14 15 9 5 13
7 6 8 8 8 10 11 12 11 12 10 6 1 4 3 3 2 2 1 1 2 0 2 4 6 6 4 3 2 2 3 2 3 5 6 5 4 2 4 2 2 10 13 13 5 7 20
7 7 7 6 8 9 9 10 11 7 5 3 1 6 3 2 4 1 1 1 1 2 1 4 3 3 3 4 3 2 0 2 2 3 4 3 4 3 3 3 2 14 9 6 6 14 15
7 6 6 6 7 7 7 8 9 10 8 3 1 4 4 2 3 1 2 2 3 4 3 1 4 2 2 2 2 1 2 1 2 2 4 2 3 3 2 4 9 12 10 7 14 15 15
Wind_Direction
27 25 22 18 14 10 6 2 359 355 353 351 348 346 344 339 336 330 327 323 316 311 308 310 308 308 335 123 258 350 79 79 68 97 128 149 168 180 218 202 265 227 279 288 280 302 272
26 24 21 17 13 8 6 0 357 355 352 349 347 345 342 339 336 329 325 324 317 313 308 302 288 270 161 201 107 31 112 85 100 116 142 147 200 206 236 240 191 268 263 267 265 250 244
27 22 20 16 11 8 3 0 357 354 352 348 346 344 342 339 337 330 325 324 322 323 324 280 197 162 121 203 7 141 106 108 138 139 145 191 176 151 157 287 300 286 301 292 214 231 236
24 20 18 14 10 6 2 359 357 354 351 348 346 345 341 340 336 331 330 325 334 15 61 97 135 85 212 318 42 107 102 90 92 117 120 136 116 118 184 314 348 308 275 317 9 154 249
22 18 15 11 9 5 2 359 356 353 350 347 346 344 343 340 337 329 334 333 28 43 100 103 33 331 61 347 49 31 180 117 110 69 33 88 64 106 41 66 332 307 275 276 317 236 272
21 17 15 11 7 3 1 358 355 352 349 346 345 344 342 340 338 329 337 334 2 31 21 256 239 18 8 323 309 41 353 127 110 109 49 51 49 170 60 107 260 256 263 253 248 295 327
20 17 15 10 7 3 0 357 355 351 348 347 345 344 341 340 341 339 360 32 18 354 37 89 276 237 267 290 270 31 130 104 85 72 195 276 257 228 216 203 225 256 265 271 277 272 281
20 18 14 10 7 3 359 356 353 350 348 346 344 342 338 339 341 360 30 69 118 205 325 304 256 276 240 266 335 10 137 134 149 235 169 288 249 242 205 207 234 239 264 277 283 269 198
21 19 13 10 7 2 358 355 352 349 347 345 343 340 335 336 334 43 71 75 294 153 207 306 254 347 321 2 325 304 155 137 213 233 206 196 241 112 247 235 238 240 243 262 248 282 248
23 19 12 8 5 2 358 354 351 347 346 345 343 340 335 338 46 315 60 329 292 195 63 324 354 1 347 333 118 315 277 248 264 262 244 236 275 233 244 249 202 273 229 249 261 260 264
22 18 13 8 4 1 356 353 349 346 345 343 343 341 342 24 239 48 324 332 150 66 2 323 347 329 335 44 323 35 7 312 257 261 317 257 280 293 280 257 184 261 251 245 250 237 245
21 18 14 8 3 360 356 353 350 348 344 341 342 341 341 16 30 70 332 320 46 41 257 14 360 357 5 1 0 320 17 26 1 303 249 272 322 262 258 276 230 278 307 265 197 195 240
23 19 13 7 4 0 357 353 350 348 344 340 341 344 32 66 300 315 333 52 23 116 341 350 339 354 343 326 353 8 48 32 22 349 5 320 277 305 17 343 328 9 344 283 298 223 251
25 18 14 9 5 1 358 354 351 348 345 339 339 7 28 83 332 317 73 42 71 23 358 333 321 307 53 13 17 349 32 28 21 18 303 330 326 14 356 19 298 296 221 258 275 251 274
26 20 15 10 7 3 359 356 353 350 345 341 344 0 34 339 344 48 69 49 65 334 301 329 317 5 11 13 1 359 48 30 53 21 348 313 263 330 337 342 278 321 324 318 259 248 259
26 21 17 13 9 5 2 358 356 351 347 349 61 39 345 340 350 56 68 102 79 28 332 348 357 38 350 337 358 11 310 357 350 18 212 298 295 284 319 321 269 44 284 308 251 269 241
29 26 21 15 11 7 2 360 359 355 349 353 54 57 275 348 44 48 86 92 66 30 23 24 4 317 353 343 310 284 295 59 8 330 326 299 235 293 337 336 313 327 13 308 274 25 301
34 31 25 16 13 8 4 2 1 360 352 36 63 45 322 350 49 33 60 26 35 2 12 13 88 69 343 340 303 288 319 288 72 340 331 279 274 278 286 270 305 144 71 35 19 334 306
41 33 29 21 15 10 5 4 3 3 10 40 68 317 331 38 76 31 13 61 72 18 20 12 354 55 35 328 339 293 334 330 357 347 321 289 280 319 319 108 42 11 349 347 302 242 254
45 38 30 25 17 14 9 6 5 4 9 81 71 28 1 34 32 93 50 26 2 13 110 355 313 48 1 293 236 283 303 314 340 323 318 5 288 258 268 279 309 304 319 326 267 269 337
56 45 35 29 24 19 15 9 7 7 15 82 25 85 174 11 25 55 65 65 9 360 5 14 56 10 339 298 297 247 305 310 310 315 336 315 272 274 264 273 279 282 301 320 300 264 334
62 44 42 36 28 24 22 17 12 11 27 78 93 100 34 73 5 50 8 42 32 323 287 320 352 315 293 231 249 289 316 306 265 324 337 342 289 306 292 298 328 328 38 32 22 15 4
76 53 47 39 34 31 28 26 26 17 36 81 2 61 102 334 36 91 88 328 43 343 277 297 290 283 293 274 270 285 269 266 260 283 304 303 300 311 294 324 313 114 12 37 5 39 351
83 69 56 44 40 37 35 34 35 36 48 95 138 106 82 85 94 106 107 8 325 318 259 298 322 303 269 322 298 283 269 232 178 267 225 297 324 297 296 332 57 111 37 18 356 60 35
99 80 63 49 45 43 40 36 38 41 48 68 59 75 84 112 241 142 46 40 330 327 324 291 295 248 318 325 358 346 345 6 355 337 324 238 339 313 343 302 255 25 6 345 335 307 30
111 85 68 55 52 52 44 39 48 37 49 66 32 82 90 115 268 62 71 63 49 323 329 279 301 312 3 6 348 331 9 320 326 331 346 343 164 111 324 316 347 4 336 319 293 242 352
112 90 76 59 57 50 47 44 52 55 63 86 27 74 82 97 285 82 124 122 124 313 262 296 330 352 9 10 353 11 326 264 328 316 336 335 347 349 319 291 116 354 347 323 21 317 333
116 95 82 74 57 47 40 44 42 57 85 77 284 15 101 116 290 207 187 131 103 101 159 289 24 2 336 33 8 321 63 275 357 305 336 357 325 337 322 316 351 23 352 8 340 315 313
123 108 97 77 58 42 31 28 29 23 43 56 23 35 28 123 228 306 295 297 207 197 156 343 180 241 233 55 11 73 286 6 177 294 3 34 34 304 360 299 354 356 330 342 334 321 320